This demonstration page uses our WeatherBlox Daily Observations layout. Learn more.

Left ArrowRight Arrow

39.12711, -84.51439

Hourly Observations for January 3, 2018

Temp ( °F °C ) Dew Point ( °F °C ) Humidity (%) Winds ( mph kmh ) Pressure ( in mb ) Visibility ( mi km ) Precip ( " mm )
12:53 am 00:53 Clear 2 -16.7 -2 -18.9 83 83 N N/A 30.37 1029 10 16 N/A
1:53 am 01:53 Clear 2 -16.7 -2 -18.9 83 83 N N/A 30.37 1028 10 16 N/A
2:53 am 02:53 Clear 1 -17.2 -2 -18.9 87 87 N N/A 30.36 1028 10 16 N/A
3:53 am 03:53 Clear N/A -4 -20 83 83 N N/A 30.34 1028 10 16 N/A
4:53 am 04:53 Clear N/A -4 -20 83 83 N N/A 30.32 1027 10 16 N/A
5:53 am 05:53 Clear N/A -4 -20 83 83 N N/A 30.30 1026 10 16 N/A
6:53 am 06:53 Clear N/A -4 -20 83 83 N N/A 30.29 1026 10 16 N/A
7:53 am 07:53 Clear 2 -16.7 -2 -18.9 83 83 N N/A 30.28 1025 10 16 N/A
8:53 am 08:53 Sunny 6 -14.4 2 -16.7 83 83 N N/A 30.27 1025 10 16 N/A
9:53 am 09:53 Sunny 12 -11.1 5 -15 73 73 SSE 5 7 30.24 1024 10 16 N/A
10:53 am 10:53 Sunny 18 -7.8 7 -13.9 62 62 S 7 11 30.21 1023 10 16 N/A
11:53 am 11:53 Partly Cloudy 24 -4.4 6 -14.4 46 46 SW 7 11 30.18 1022 10 16 N/A
12:53 pm 12:53 Mostly Sunny 25 -3.9 5 -15 42 42 SW 12 19 30.13 1020 10 16 N/A
1:53 pm 13:53 Cloudy 26 -3.3 6 -14.4 42 42 WSW 10 17 30.10 1019 10 16 N/A
2:53 pm 14:53 Cloudy 27 -2.8 8 -13.3 45 45 SW 6 9 30.09 1019 10 16 N/A
3:53 pm 15:53 Cloudy 27 -2.8 7 -13.9 43 43 W 12 19 30.11 1020 10 16 N/A
4:53 pm 16:53 Cloudy 26 -3.3 7 -13.9 44 44 W 9 15 30.12 1020 10 16 N/A
5:53 pm 17:53 Cloudy 25 -3.9 11 -11.7 55 55 NW 8 13 30.13 1020 10 16 N/A
6:53 pm 18:53 Cloudy 23 -5 14 -10 68 68 NNW 7 11 30.15 1021 10 16 N/A
7:53 pm 19:53 Cloudy 22 -5.6 13 -10.6 68 68 WNW 6 9 30.16 1021 10 16 N/A
8:53 pm 20:53 Cloudy 22 -5.6 13 -10.6 68 68 NW 5 7 30.15 1021 10 16 N/A
9:27 pm 21:27 Cloudy with Light Snow 19 -7.2 13 -10.6 77 77 NNW 15 24 30.18 1022 3 4 N/A
9:39 pm 21:39 Cloudy with Light Snow 19 -7.2 12 -11.1 74 74 NW 13 20 30.18 1022 4 6 N/A
9:50 pm 21:50 Cloudy with Light Snow 19 -7 10 -12 68 68 NW 14 22 30.18 1022 6 10 N/A
9:53 pm 21:53 Cloudy with Light Snow 19 -7.2 11 -11.7 71 71 VRB 7 11 30.16 1022 7 11 N/A
10:53 pm 22:53 Cloudy 18 -7.8 9 -12.8 68 68 WNW 9 15 30.16 1022 10 16 N/A
11:53 pm 23:53 Cloudy 17 -8.3 6 -14.4 62 62 NNW 10 17 30.17 1022 10 16 N/A

Powered by AerisWeather